Regional Weather Roundup
Issued by NWS

Home | Current Version | Previous Version | Graphics & Text | Print | Product List | Glossary On
Versions: 1 2 3 4 5 6 7 8 9 10 11 12 13 14 15 16 17 18 19 20 21 22 23 24 25 26 27 28 29 30 31 32 33 34 35 36 37 38 39 40 41 42 43 44 45 46 47 48 49 50
000
ASUS43 KLSX 250757
RWRMO

WEATHER SUMMARY FOR MISSOURI
NATIONAL WEATHER SERVICE SPRINGFIELD MO
300 AM CDT THU MAY 25 2017

NOTE: "FAIR" INDICATES FEW OR NO CLOUDS BELOW 12,000 FEET WITH NO
       SIGNIFICANT WEATHER AND/OR OBSTRUCTIONS TO VISIBILITY.
       CURRENT SKY AND/OR WEATHER CONDITIONS ARE NOT AVAILABLE FOR
       CHILLICOTHE AND FARMINGTON.

MOZ001>031-035>038-043-044-053-054-250900-
...NORTHERN AND WESTERN MISSOURI...

CITY           SKY/WX    TMP DP  RH WIND       PRES   REMARKS
KANSAS CTY INT CLEAR     50  47  89 S5        29.69S
LEE`S SUMMIT   CLEAR     50  49  96 CALM      29.70S
ST JOSEPH      FOG       46  46 100 CALM      29.69S VSB 1/2
CHILLICOTHE      N/A     46  45  96 CALM      29.70S
KIRKSVILLE     CLEAR     46  45  96 NW3       29.68S FOG

$$
MOZ066>068-077>081-088>096-101>105-250900-
...SOUTHWEST MISSOURI...

CITY           SKY/WX    TMP DP  RH WIND       PRES   REMARKS
SPRINGFIELD    CLEAR     47  46  97 SW6       29.71S
JOPLIN         CLEAR     49  48  97 S3        29.72F

$$
MOZ032>034-039>042-045>050-055>058-069>072-250900-
...CENTRAL MISSOURI...

CITY           SKY/WX    TMP DP  RH WIND       PRES   REMARKS
COLUMBIA       NOT AVBL
JEFFERSON CITY CLEAR     52  48  86 N3        29.68R
ROLLA          CLEAR     50  49  96 W7        29.67S
SEDALIA        CLEAR     52  51  97 W3        29.70S
WARRENSBURG      N/A     48  46  93 CALM      29.69F FOG

$$
MOZ051-052-059>065-250900-
...EAST CENTRAL MISSOURI...

CITY           SKY/WX    TMP DP  RH WIND       PRES   REMARKS
ST LOUIS INTL  CLEAR     57  52  83 W9        29.63S

$$
MOZ072>076-082>087-097>100-106>115-250900-
...SOUTH CENTRAL AND SOUTHEAST MISSOURI...

CITY           SKY/WX    TMP DP  RH WIND       PRES   REMARKS
CAPE GIRARDEAU CLEAR     52  48  86 W8        29.62S
POPLAR BLUFF   CLEAR     52  49  89 NW5       29.66R
WEST PLAINS    CLEAR     50  47  89 W3        29.70F

$$



USA.gov is the U.S. government's official web portal to all federal, state and local government web resources and services.